Regional Weather Roundup
Issued by NWS

Home | Current Version | Previous Version | Text Only | Print | Product List | Glossary On
Versions: 1 2 3 4 5 6 7 8 9 10 11 12 13 14 15 16 17 18 19 20 21 22 23 24 25 26 27 28 29 30 31 32 33 34 35 36 37 38 39 40 41 42 43 44 45 46 47 48 49 50
000
ASUS43 KFSD 140502
RWRSD

WEATHER ROUNDUP FOR SOUTH DAKOTA
NATIONAL WEATHER SERVICE SIOUX FALLS SD
1100 PM CST SAT FEB 13 2016

NOTE: "FAIR" INDICATES FEW OR NO CLOUDS BELOW 12,000 FEET WITH NO
SIGNIFICANT WEATHER AND/OR OBSTRUCTIONS TO VISIBILITY.


SDZ001>005-009-010-012>017-140600-
NORTHWEST AND NORTH CENTRAL SOUTH DAKOTA

CITY           SKY/WX    TMP DP  RH WIND       PRES   REMARKS
BUFFALO          N/A     38  33  82 NW25G33   29.78R
FAITH            N/A     35  31  85 W20       29.79F WCI  24
MOBRIDGE       LGT SNOW  20  17  88 SE13      29.83F VSB 3/4 WCI   7
$$

SDZ012>016-024>037-041>051-057-063-072>074-140600-
SOUTHWEST AND SOUTH CENTRAL SOUTH DAKOTA

CITY           SKY/WX    TMP DP  RH WIND       PRES   REMARKS
RAPID CTY ARPT CLOUDY    39  30  70 NW25G33   29.88R
PIERRE         LGT SNOW  25  23  92 SE8       29.84F FOG     WCI  16
CUSTER         CLOUDY    33  21  61 NW24G46   29.89R WCI  20
ELLSWORTH AFB  CLOUDY    39  32  75 NW25      29.86R
PHILIP         LGT RAIN  34  33  96 W7        29.84S WCI  28
PINE RIDGE     MOCLDY    36  32  85 W6        29.92S
WINNER         CLOUDY    30  22  72 S15       29.82F WCI  19
$$

SDZ004>011-016>023-039-040-140600-
NORTHEAST SOUTH DAKOTA

CITY           SKY/WX    TMP DP  RH WIND       PRES   REMARKS
ABERDEEN       CLOUDY    15  10  80 SE26G33   29.97F HAZE    WCI  -4
WATERTOWN      LGT SNOW  12   6  77 S17G23    30.05F WCI  -5
BROOKINGS      FLURRIES  11   7  84 S20       30.06S WCI  -7
SISSETON         N/A     11   5  77 S20       30.09F WCI  -7
$$

SDZ017-020-022-023-036>040-048>070-140600-
SOUTHEAST SOUTH DAKOTA

CITY           SKY/WX    TMP DP  RH WIND       PRES   REMARKS
SIOUX FALLS    LGT SNOW  13   7  77 S18G28    30.08F WCI  -4
HURON          FLURRIES  14   8  77 SE20G26   30.00F WCI  -3
MITCHELL       MIX PCPN  16   9  74 SE20      30.02R WCI  -1
YANKTON        CLOUDY    16   7  67 SE21G26   30.06S WCI  -2
$$

ABBREVIATIONS USED IN REMARKS
   TC - TEMPERATURE IN CELSIUS
  WCI - WIND CHILL INDEX
   HX - HEAT INDEX
  VSB - VISIBILITY




USA.gov is the U.S. government's official web portal to all federal, state and local government web resources and services.